EW4565 Weather Reports


Display with metric or nautical units.
time (UTC)temp
F
wind
direction
speed
MPH
gust
MPH
rain 1hr
in
rain 24hr
in
rain mn
in
humidity
%
barometer
mb
20260505072804 59 273 2.0 8.0 0.00 0.00 0.00 37 1012.4
20260505072551 59 346 1.0 7.0 0.00 0.00 0.00 38 1012.4
20260505072100 59 256 2.0 9.0 0.00 0.00 0.00 37 1012.2
20260505071256 60 201 2.0 9.0 0.00 0.00 0.00 38 1012.1
20260505070756 60 252 2.0 9.0 0.00 0.00 0.00 38 1012.2
20260505070257 60 324 2.0 9.0 0.00 0.00 0.00 38 1012.1
20260505065756 60 64 1.0 8.0 0.00 0.00 0.00 38 1012.1
20260505065256 60 241 1.0 8.0 0.00 0.00 0.00 38 1012.0
20260505064755 60 185 1.0 7.0 0.00 0.00 0.00 38 1011.7
20260505064253 60 299 1.0 6.0 0.00 0.00 0.00 38 1011.9
20260505063754 60 75 1.0 10.0 0.00 0.00 0.00 39 1011.7
20260505063251 60 269 1.0 10.0 0.00 0.00 0.00 38 1011.7
20260505062750 60 160 2.0 7.0 0.00 0.00 0.00 38 1011.7
20260505062250 60 217 2.0 8.0 0.00 0.00 0.00 38 1011.6
20260505062053 61 279 2.0 9.0 0.00 0.00 0.00 38 1011.6
20260505061250 61 289 2.0 11.0 0.00 0.00 0.00 38 1011.6
20260505060750 61 293 2.0 11.0 0.00 0.00 0.00 38 1011.6
20260505060249 61 304 2.0 11.0 0.00 0.00 0.00 38 1011.6
20260505055747 61 280 3.0 11.0 0.00 0.00 0.00 38 1011.4
20260505055244 61 295 2.0 10.0 0.00 0.00 0.00 38 1011.2
20260505054744 62 270 2.0 7.0 0.00 0.00 0.00 38 1011.2
20260505054244 62 168 2.0 8.0 0.00 0.00 0.00 38 1011.3
20260505053744 62 73 2.0 11.0 0.00 0.00 0.00 38 1011.1
20260505053545 62 260 2.0 11.0 0.00 0.00 0.00 38 1010.9
20260505052742 62 168 2.0 10.0 0.00 0.00 0.00 38 1010.7
20260505052555 62 311 2.0 10.0 0.00 0.00 0.00 38 1010.7
20260505051744 62 232 1.0 8.0 0.00 0.00 0.00 38 1010.7
20260505051243 63 252 2.0 8.0 0.00 0.00 0.00 38 1010.7
20260505050742 63 235 2.0 8.0 0.00 0.00 0.00 38 1010.6
20260505050240 63 148 2.0 9.0 0.00 0.00 0.00 38 1010.5
20260505041731 64 245 3.0 11.0 0.00 0.00 0.00 38 1009.9
20260505041232 65 280 3.0 11.0 0.00 0.00 0.00 37 1010.0
20260505041034 65 262 3.0 9.0 0.00 0.00 0.00 37 1009.8
20260505040229 65 298 3.0 9.0 0.00 0.00 0.00 36 1009.6
20260505035730 65 262 3.0 9.0 0.00 0.00 0.00 36 1009.7
20260505035230 66 196 2.0 12.0 0.00 0.00 0.00 36 1009.5
20260505034730 66 67 3.0 12.0 0.00 0.00 0.00 36 1009.1
20260505034232 66 243 3.0 11.0 0.00 0.00 0.00 36 1009.1
20260505033730 66 268 2.0 8.0 0.00 0.00 0.00 36 1009.1
20260505033232 66 101 2.0 10.0 0.00 0.00 0.00 36 1008.9
20260505032731 67 175 2.0 10.0 0.00 0.00 0.00 35 1008.8
20260505032535 67 276 2.0 8.0 0.00 0.00 0.00 35 1008.8
20260505031732 67 249 1.0 7.0 0.00 0.00 0.00 35 1008.7
20260505031230 67 274 1.0 6.0 0.00 0.00 0.00 35 1008.7
20260505030729 68 216 1.0 6.0 0.00 0.00 0.00 35 1008.6
20260505030228 68 322 1.0 5.0 0.00 0.00 0.00 34 1008.6
20260505030028 68 158 0.0 4.0 0.00 0.00 0.00 34 1008.6
20260505025231 68 119 1.0 8.0 0.00 0.00 0.00 33 1008.5
20260505024729 69 326 1.0 8.0 0.00 0.00 0.00 33 1008.5
20260505024536 69 208 1.0 3.0 0.00 0.00 0.00 33 1008.5
20260505023729 70 328 1.0 5.0 0.00 0.00 0.00 32 1008.5
20260505023230 70 291 1.0 6.0 0.00 0.00 0.00 32 1008.5
20260505022730 71 289 1.0 6.0 0.00 0.00 0.00 32 1008.5
20260505022232 71 212 1.0 4.0 0.00 0.00 0.00 31 1008.4
20260505022033 71 299 1.0 4.0 0.00 0.00 0.00 31 1008.4
20260505021231 71 307 1.0 6.0 0.00 0.00 0.00 31 1008.5
20260505020728 72 291 1.0 6.0 0.00 0.00 0.00 30 1008.5
20260505020229 72 278 1.0 4.0 0.00 0.00 0.00 30 1008.7
20260505015729 72 285 0.0 3.0 0.00 0.00 0.00 30 1008.6
20260505015230 73 293 1.0 4.0 0.00 0.00 0.00 30 1008.6
20260505014729 73 293 1.0 5.0 0.00 0.00 0.00 29 1008.6
20260505014229 74 287 1.0 8.0 0.00 0.00 0.00 29 1008.6
20260505014032 74 308 1.0 8.0 0.00 0.00 0.00 29 1008.6
20260505013229 74 64 0.0 4.0 0.00 0.00 0.00 29 1008.6
20260505012733 74 314 0.0 2.0 0.00 0.00 0.00 29 1008.7
20260505012230 75 315 1.0 4.0 0.00 0.00 0.00 27 1008.7
20260505011730 75 312 1.0 4.0 0.00 0.00 0.00 27 1008.8
20260505011229 76 17 1.0 3.0 0.00 0.00 0.00 27 1008.7
20260505010730 76 28 0.0 4.0 0.00 0.00 0.00 27 1008.8
20260505010228 76 41 1.0 6.0 0.00 0.00 0.00 27 1008.7
20260505005729 76 49 1.0 6.0 0.00 0.00 0.00 27 1008.8
20260505005529 75 341 1.0 5.0 0.00 0.00 0.00 27 1008.8
20260505004729 75 69 1.0 5.0 0.00 0.00 0.00 27 1008.8
20260505004230 76 8 1.0 2.0 0.00 0.00 0.00 27 1008.9
20260505003730 77 9 1.0 3.0 0.00 0.00 0.00 26 1008.8
20260505003229 77 13 1.0 4.0 0.00 0.00 0.00 25 1008.9
20260505002730 77 316 1.0 4.0 0.00 0.00 0.00 26 1008.8
20260505002229 77 88 1.0 4.0 0.00 0.00 0.00 26 1008.9
20260505001731 77 87 1.0 5.0 0.00 0.00 0.00 28 1008.8
20260505001230 77 79 1.0 8.0 0.00 0.00 0.00 26 1008.8
20260505001026 77 278 1.0 8.0 0.00 0.00 0.00 27 1008.8
20260505000228 77 295 1.0 8.0 0.00 0.00 0.00 27 1008.9
20260504235733 76 67 1.0 5.0 0.00 0.00 0.00 26 1009.0
20260504235234 76 62 2.0 5.0 0.00 0.00 0.00 27 1009.1
20260504234733 77 73 1.0 6.0 0.00 0.00 0.00 27 1009.0
20260504234234 76 90 2.0 8.0 0.00 0.00 0.00 27 1009.1
20260504233732 76 94 2.0 8.0 0.00 0.00 0.00 27 1009.1
20260504233231 76 56 1.0 4.0 0.00 0.00 0.00 26 1009.0
20260504232734 77 50 1.0 7.0 0.00 0.00 0.00 26 1009.1
20260504232234 77 51 2.0 7.0 0.00 0.00 0.00 28 1009.4
20260504231731 76 64 2.0 7.0 0.00 0.00 0.00 27 1009.4
20260504231232 76 63 1.0 7.0 0.00 0.00 0.00 27 1009.4
20260504230732 76 132 1.0 4.0 0.00 0.00 0.00 27 1009.4
20260504230339 76 143 1.0 7.0 0.00 0.00 0.00 27 1009.5
20260504230315 76 135 1.0 7.0 0.00 0.00 0.00 26 1009.4
20260504225235 76 77 1.0 8.0 0.00 0.00 0.00 29 1009.5
20260504224735 76 74 1.0 8.0 0.00 0.00 0.00 28 1009.6
20260504224233 76 56 1.0 4.0 0.00 0.00 0.00 26 1009.6
20260504223735 77 50 1.0 9.0 0.00 0.00 0.00 26 1009.6
20260504223231 77 278 1.0 9.0 0.00 0.00 0.00 27 1009.7
20260504222733 77 303 1.0 4.0 0.00 0.00 0.00 26 1009.8
20260504222234 76 9 1.0 4.0 0.00 0.00 0.00 29 1009.8
20260504222022 76 62 1.0 4.0 0.00 0.00 0.00 28 1009.8
20260504221232 76 62 1.0 5.0 0.00 0.00 0.00 26 1009.8
20260504221028 76 63 1.0 7.0 0.00 0.00 0.00 28 1009.8
20260504220231 76 318 1.0 7.0 0.00 0.00 0.00 27 1009.9
20260504215734 77 48 1.0 7.0 0.00 0.00 0.00 27 1009.9
20260504215234 76 303 2.0 11.0 0.00 0.00 0.00 28 1010.0
20260504214733 75 48 2.0 11.0 0.00 0.00 0.00 30 1010.0
20260504214525 75 68 2.0 10.0 0.00 0.00 0.00 29 1009.9
20260504214038 75 70 1.0 5.0 0.00 0.00 0.00 28 1010.0
20260504213231 75 238 1.0 3.0 0.00 0.00 0.00 27 1010.0
20260504212731 75 238 1.0 3.0 0.00 0.00 0.00 29 1010.1
20260504212235 75 237 1.0 4.0 0.00 0.00 0.00 31 1010.1
20260504211731 75 243 0.0 4.0 0.00 0.00 0.00 29 1010.1
20260504211232 75 246 0.0 2.0 0.00 0.00 0.00 30 1010.2
20260504210732 75 245 1.0 3.0 0.00 0.00 0.00 32 1010.2
20260504210229 74 247 1.0 3.0 0.00 0.00 0.00 30 1010.2
20260504205728 74 245 1.0 3.0 0.00 0.00 0.00 30 1010.3
20260504205229 74 242 1.0 3.0 0.00 0.00 0.00 32 1010.3
20260504204728 74 199 0.0 3.0 0.00 0.00 0.00 33 1010.3
20260504204229 73 289 0.0 3.0 0.00 0.00 0.00 32 1010.4
20260504203728 73 289 0.0 3.0 0.00 0.00 0.00 30 1010.3
20260504203229 73 290 0.0 3.0 0.00 0.00 0.00 31 1010.3
20260504202728 73 290 1.0 3.0 0.00 0.00 0.00 32 1010.4
20260504202229 73 290 1.0 3.0 0.00 0.00 0.00 31 1010.3
20260504201729 73 290 1.0 5.0 0.00 0.00 0.00 30 1010.3
20260504201228 73 290 0.0 5.0 0.00 0.00 0.00 30 1010.3
20260504200729 73 197 1.0 4.0 0.00 0.00 0.00 32 1010.4
20260504200230 73 168 1.0 4.0 0.00 0.00 0.00 31 1010.4
20260504195728 73 125 1.0 3.0 0.00 0.00 0.00 33 1010.5
20260504195231 72 124 0.0 3.0 0.00 0.00 0.00 32 1010.5
20260504194730 71 124 1.0 4.0 0.00 0.00 0.00 32 1010.5
20260504194229 71 58 1.0 6.0 0.00 0.00 0.00 32 1010.5
20260504193731 72 58 1.0 6.0 0.00 0.00 0.00 31 1010.6
20260504193530 71 262 1.0 4.0 0.00 0.00 0.00 32 1010.6
20260504192730 71 131 1.0 5.0 0.00 0.00 0.00 31 1010.7
20260504192229 71 76 1.0 5.0 0.00 0.00 0.00 32 1010.7
20260504191729 71 185 1.0 4.0 0.00 0.00 0.00 31 1010.8
20260504191230 71 222 0.0 4.0 0.00 0.00 0.00 31 1010.8
20260504190730 71 212 1.0 3.0 0.00 0.00 0.00 32 1010.8
20260504190229 71 211 1.0 3.0 0.00 0.00 0.00 33 1010.9
20260504185840 70 214 0.0 5.0 0.00 0.00 0.00 32 1010.9
20260504185813 70 208 0.0 3.0 0.00 0.00 0.00 32 1010.8
20260504184729 70 203 0.0 5.0 0.00 0.00 0.00 32 1010.9
20260504184230 70 158 1.0 6.0 0.00 0.00 0.00 34 1010.9
20260504183730 69 155 1.0 6.0 0.00 0.00 0.00 34 1011.1
20260504183648 70 154 1.0 6.0 0.00 0.00 0.00 34 1011.1
20260504183644 69 147 1.0 5.0 0.00 0.00 0.00 33 1010.9
20260504182233 70 259 1.0 6.0 0.00 0.00 0.00 33 1011.1
20260504181731 69 225 0.0 4.0 0.00 0.00 0.00 35 1011.2
20260504181232 69 234 1.0 4.0 0.00 0.00 0.00 35 1011.2
20260504180732 68 274 0.0 4.0 0.00 0.00 0.00 36 1011.2
20260504180231 68 276 0.0 4.0 0.00 0.00 0.00 39 1011.2
20260504175731 67 277 0.0 2.0 0.00 0.00 0.00 38 1011.3
20260504175236 67 277 0.0 2.0 0.00 0.00 0.00 38 1011.3
20260504174730 67 277 0.0 2.0 0.00 0.00 0.00 40 1011.4
20260504174229 67 278 0.0 3.0 0.00 0.00 0.00 42 1011.4
20260504173732 66 279 0.0 3.0 0.00 0.00 0.00 44 1011.6
20260504173230 66 279 0.0 2.0 0.00 0.00 0.00 46 1011.6
20260504172729 66 279 0.0 3.0 0.00 0.00 0.00 47 1011.7
20260504172229 65 280 0.0 3.0 0.00 0.00 0.00 46 1011.6
20260504171730 65 280 0.0 2.0 0.00 0.00 0.00 47 1011.7
20260504171231 65 280 0.0 2.0 0.00 0.00 0.00 47 1011.7
20260504171032 65 282 0.0 2.0 0.00 0.00 0.00 46 1011.7
20260504170228 65 283 0.0 1.0 0.00 0.00 0.00 48 1011.8
20260504160212 59 278 0.0 2.0 0.00 0.00 0.00 52 1012.0
20260504150705 55 276 0.0 1.0 0.00 0.00 0.00 57 1012.1
20260504150208 54 277 0.0 0.0 0.00 0.00 0.00 58 1012.1
20260504140701 50 277 0.0 0.0 0.00 0.00 0.00 68 1011.9
20260504140202 50 277 0.0 0.0 0.00 0.00 0.00 67 1011.8
20260504130659 49 277 0.0 0.0 0.00 0.00 0.00 66 1011.1
20260504130200 49 277 0.0 0.0 0.00 0.00 0.00 65 1011.1
20260504120156 50 277 0.0 0.0 0.00 0.00 0.00 63 1010.6
20260504110631 51 277 0.0 0.0 0.00 0.00 0.00 63 1010.3
20260504110132 51 276 0.0 0.0 0.00 0.00 0.00 62 1010.3
20260504100130 53 276 0.0 0.0 0.00 0.00 0.00 58 1009.8
20260504081625 55 277 0.0 0.0 0.00 0.00 0.00 53 1009.4
20260504081424 56 276 0.0 0.0 0.00 0.00 0.00 53 1009.2
20260504080624 56 277 0.0 0.0 0.00 0.00 0.00 52 1009.1
20260504080122 56 277 0.0 0.0 0.00 0.00 0.00 53 1009.2